Regional Weather Roundup
Issued by NWS

Home | Current Version | Previous Version | Graphics & Text | Print | Product List | Glossary On
Versions: 1 2 3 4 5 6 7 8 9 10 11 12 13 14 15 16 17 18 19 20 21 22 23 24 25 26 27 28 29 30 31 32 33 34 35 36 37 38 39 40 41 42 43 44 45 46 47 48 49 50
602
ASUS43 KFSD 210802
RWRSD

WEATHER ROUNDUP FOR SOUTH DAKOTA
NATIONAL WEATHER SERVICE SIOUX FALLS SD
300 AM CDT THU SEP 21 2017

NOTE: "FAIR" INDICATES FEW OR NO CLOUDS BELOW 12,000 FEET WITH NO
SIGNIFICANT WEATHER AND/OR OBSTRUCTIONS TO VISIBILITY.


SDZ001>005-009-010-012>017-210900-
NORTHWEST AND NORTH CENTRAL SOUTH DAKOTA

CITY           SKY/WX    TMP DP  RH WIND       PRES   REMARKS
BUFFALO          N/A     68  34  28 S16       29.60S
FAITH            N/A     60  37  42 SE14      29.73F
MOBRIDGE       CLOUDY    61  44  53 SE13      29.75S
$$

SDZ012>016-024>037-041>051-057-063-072>074-210900-
SOUTHWEST AND SOUTH CENTRAL SOUTH DAKOTA

CITY           SKY/WX    TMP DP  RH WIND       PRES   REMARKS
RAPID CTY ARPT NOT AVBL
PIERRE         CLEAR     58  42  55 SE12      29.77S
CUSTER         CLEAR     52  29  41 VRB3      29.80F
ELLSWORTH AFB  CLEAR     54  37  52 E3        29.70F
PHILIP         CLEAR     60  39  45 S12       29.74F
PINE RIDGE     CLEAR     65  36  34 S21G35    29.75S
SPEARFISH      FAIR      57  36  44 E5        29.71F
WINNER         FAIR      62  44  51 S10       29.81F
$$

SDZ004>011-016>023-039-040-210900-
NORTHEAST SOUTH DAKOTA

CITY           SKY/WX    TMP DP  RH WIND       PRES   REMARKS
ABERDEEN       CLOUDY    53  47  79 S10       29.83S
WATERTOWN      CLEAR     56  44  64 SE12      29.88F
BROOKINGS      CLEAR     51  44  77 SE10      29.92F
SISSETON         N/A     50  47  89 SE8       29.88S
$$

SDZ017-020-022-023-036>040-048>070-210900-
SOUTHEAST SOUTH DAKOTA

CITY           SKY/WX    TMP DP  RH WIND       PRES   REMARKS
SIOUX FALLS    CLEAR     50  48  93 E5        29.92F
HURON          CLEAR     54  47  77 SE12      29.85F
MITCHELL       CLEAR     52  47  83 S7        29.87F
YANKTON        CLEAR     53  50  89 E6        29.90F
$$

ABBREVIATIONS USED IN REMARKS
   TC - TEMPERATURE IN CELSIUS
  WCI - WIND CHILL INDEX
   HX - HEAT INDEX
  VSB - VISIBILITY





USA.gov is the U.S. government's official web portal to all federal, state and local government web resources and services.